Regional Weather Roundup
Issued by NWS

Home | Current Version | Previous Version | Text Only | Print | Product List | Glossary Off
Versions: 1 2 3 4 5 6 7 8 9 10 11 12 13 14 15 16 17 18 19 20 21 22 23 24 25 26 27 28 29 30 31 32 33 34 35 36 37 38 39 40 41 42 43 44 45 46 47 48 49

000
ASUS45 KSLC 200810
RWRUT

UTAH REGIONAL WEATHER ROUNDUP
NATIONAL WEATHER SERVICE SALT LAKE CITY UT
200 AM MDT SAT SEP 20 2014

UTZ001>011-023>025-200900-

NORTHERN UTAH

CITY           SKY/WX    TMP DP  RH WIND       PRES   REMARKS
HILL AFB       CLEAR     64  45  49 E15       30.13R
LOGAN          CLEAR     53  50  89 NE5       30.15R
OGDEN          CLEAR     60  45  57 S7        30.11R
PROVO AIRPORT  CLEAR     61  52  72 SE9       30.13R
SALT LAKE CITY CLEAR     63  53  70 SW3       30.10R
VERNAL         CLEAR     56  45  66 CALM      30.15R
WENDOVER       CLEAR     66  45  45 CALM      30.11R
HEBER CITY     CLEAR     50  46  87 CALM      30.21R
WEST JORDAN    CLEAR     63  45  51 CALM      30.13R

$$

UTZ012>022-026-027-200900-

SOUTHERN UTAH

CITY           SKY/WX    TMP DP  RH WIND       PRES   REMARKS
BRYCE CANYON   CLEAR     47  43  86 W7        30.29R
CEDAR CITY     CLEAR     63  44  50 SE7       30.15R
MILFORD        CLEAR     63  43  48 N7        30.10R
MOAB/CYNLANDS  CLEAR     68  41  37 NW3       30.03R
PRICE          CLEAR     65  44  46 N5        30.16R
ST GEORGE      SUNNY     75  46  35 S3        29.97R
KANAB            N/A     61  46  59 N3        30.13R

$$

REGIONAL REPORTS     COLORADO/ARIZONA

CITY           SKY/WX    TMP DP  RH WIND       PRES   REMARKS
CRAIG, CO      CLEAR     44  39  82 CALM      30.24R
GRAND JUNCTION CLEAR     67  44  43 SE3       30.07R
RIFLE          CLEAR     57  44  62 E3        30.16R
MONTROSE       CLEAR     61  44  53 SE9       30.17R
CORTEZ         CLEAR     54  47  77 NE6       30.14R
PAGE, AZ       CLEAR     74  51  44 SW3       30.02R
GRAND CANYON   CLEAR     51  49  92 NE7       30.22R
KINGMAN        CLEAR     68  46  45 S8        29.99S
FLAGSTAFF      CLEAR     51  49  92 CALM      30.24R

$$

REGIONAL REPORTS    NEVADA/IDAHO/WYOMING

CITY           SKY/WX    TMP DP  RH WIND       PRES   REMARKS
LAS VEGAS, NV  PTCLDY    82  33  17 SW8       29.86R
ELY            CLEAR     51  34  52 S10       30.23R
ELKO           CLEAR     52  38  58 W3        30.14R
POCATELLO, ID  CLEAR     54  46  74 E7        30.16R
BURLEY         CLEAR     52  43  71 CALM      30.12R
EVANSTON, WY   CLEAR     56  38  50 E3        30.30R
ROCK SPRINGS   PTCLDY    52  34  50 SW7       30.27R

$$



USA.gov is the U.S. government's official web portal to all federal, state and local government web resources and services.